Content
SEND FEEDBACK

Daily
Averages
Monthly
Summary
Spain

A CORUŅA - DOWNTOWN, SPAIN


Home > Europe > Spain
Elevation: 220 feet     Latitude: 43 22N     Longitude: 008 25W

WEATHER
 
SELECT A DAY
Number of Records: 270,264;   Date Range: 7/1/96 - 9/3/14
 
SHARE

PRINT THIS DATA

[ ← Previous Day ]
WEATHER ALMANAC - OCTOBER 25, 2013
[ Next Day → ]
[ °C ]   °F
Weather ElementAverageHighLow
Temperature61.9 °F69.8 °F (3:00 pm)59 °F (5:30 am)
Dewpoint56.6 °F59 °F (11:00 am)53.6 °F (4:00 pm)
Humidity83.4 %94 % (6:30 am)56 % (4:00 pm)
Barometer29.77 in29.89 in (11:30 pm)29.65 in (12:19 am)
Wind Speed7.3 mph18.4 mph (1:00 am)
Wind Gust21.9 mph (3:30 pm)
Weather ElementAverage
Visibility6.2 mi
Wind DirectionSE (132.6 °)

Weather ElementTotal
Precipitation---
Heating Degree Days0.6 (Base 65)
Growing Degree Days14.4 (Base 50)
Averaged from 42 records on October 25, 2013
WEATHER CONDITIONS BREAKOUT
WIND DIRECTION BREAKOUT
WEATHER BY HOUR - OCTOBER 25, 2013
[ °C ]   °F
Local TimeTemperatureDewpointHumidityBarometerVisibilityWind DirectionWind SpeedGust SpeedPrecipitationEventsConditions
12:19 AM60.8 °F57.2 °F88 %29.65 in6.2 miSSE (150°)10.4 mphScattered Clouds
12:30 AM60.8 °F57.2 °F88 %29.65 in6.2 miSSE (160°)10.4 mphScattered Clouds
1:00 AM60.8 °F57.2 °F88 %29.65 in5.6 miSouth (180°)18.4 mphRainRain Showers
5:30 AM59.0 °F55.4 °F88 %29.68 in6.2 miEast (100°)3.5 mphMostly Cloudy
6:00 AM59.0 °F55.4 °F88 %29.68 in6.2 miVariable1.2 mphMostly Cloudy
6:30 AM59.0 °F57.2 °F94 %29.68 in6.2 miESE (120°)3.5 mphMostly Cloudy
7:00 AM59.0 °F57.2 °F94 %29.68 in6.2 miESE (120°)4.6 mphMostly Cloudy
7:30 AM59.0 °F57.2 °F94 %29.68 in6.2 miVariable2.3 mphMostly Cloudy
8:00 AM59.0 °F57.2 °F94 %29.68 in6.2 miSE (130°)6.9 mphMostly Cloudy
8:30 AM59.0 °F55.4 °F88 %29.68 in6.2 miESE (120°)8.1 mphScattered Clouds
9:00 AM59.0 °F55.4 °F88 %29.71 in6.2 miSE (140°)5.8 mphPartly Cloudy
9:30 AM60.8 °F57.2 °F88 %29.71 in6.2 miSE (140°)9.2 mphPartly Cloudy
10:00 AM60.8 °F57.2 °F88 %29.74 in6.2 miSSE (150°)8.1 mphPartly Cloudy
10:30 AM60.8 °F57.2 °F88 %29.74 in6.2 miSSE (160°)6.9 mphPartly Cloudy
11:00 AM64.4 °F59.0 °F83 %29.77 in6.2 miVariable6.9 mphPartly Cloudy
11:30 AM66.2 °F59.0 °F78 %29.77 in6.2 miSouth (170°)10.4 mphPartly Cloudy
12:00 PM66.2 °F57.2 °F73 %29.77 inSouth (170°)11.5 mphClear
12:30 PM64.4 °F57.2 °F77 %29.77 in6.2 miSouth (180°)11.5 mphPartly Cloudy
1:00 PM66.2 °F55.4 °F68 %29.77 in6.2 miSouth (180°)12.7 mphPartly Cloudy
1:30 PM64.4 °F57.2 °F77 %29.77 in6.2 miSouth (170°)10.4 mphPartly Cloudy
2:00 PM66.2 °F57.2 °F73 %29.77 in6.2 miSouth (180°)8.1 mphPartly Cloudy
2:30 PM68.0 °F57.2 °F68 %29.77 in6.2 miSouth (170°)6.9 mphPartly Cloudy
3:00 PM69.8 °F55.4 °F60 %29.77 in6.2 miSSW (200°)6.9 mphPartly Cloudy
3:30 PM68.0 °F55.4 °F64 %29.77 in6.2 miSSW (210°)10.4 mph21.9 mphScattered Clouds
4:00 PM69.8 °F53.6 °F56 %29.77 in6.2 miSSW (200°)12.7 mphMostly Cloudy
4:14 PM64.4 °F53.6 °F68 %29.80 in6.2 miWest (270°)16.1 mphRainLight Rain
4:30 PM62.6 °F55.4 °F77 %29.80 in6.2 miWSW (250°)11.5 mphRainLight Rain
5:00 PM60.8 °F55.4 °F82 %29.80 in6.2 miWSW (250°)13.8 mphRainRain Showers
5:07 PM60.8 °F55.4 °F82 %29.80 in6.2 miWSW (250°)12.7 mphRainLight Rain Showers
5:30 PM60.8 °F57.2 °F88 %29.80 in6.2 miSW (220°)8.1 mphScattered Clouds
6:00 PM62.6 °F57.2 °F82 %29.80 in6.2 miWSW (240°)8.1 mphPartly Cloudy
6:30 PM62.6 °F57.2 °F82 %29.80 in6.2 miSW (230°)8.1 mphRainLight Rain Showers
7:00 PM62.6 °F57.2 °F82 %29.80 in6.2 miVariable4.6 mphPartly Cloudy
7:30 PM60.8 °F55.4 °F82 %29.83 in6.2 miSSW (200°)4.6 mphPartly Cloudy
8:00 PM59.0 °F57.2 °F94 %29.83 in6.2 miCalmPartly Cloudy
8:30 PM59.0 °F57.2 °F94 %29.83 in6.2 miCalmPartly Cloudy
9:00 PM59.0 °F57.2 °F94 %29.83 in6.2 miSSE (160°)3.5 mphPartly Cloudy
9:30 PM59.0 °F57.2 °F94 %29.86 in6.2 miVariable1.2 mphPartly Cloudy
10:00 PM59.0 °F57.2 °F94 %29.86 in6.2 miVariable1.2 mphPartly Cloudy
10:30 PM59.0 °F55.4 °F88 %29.86 in6.2 miVariable1.2 mphPartly Cloudy
11:00 PM59.0 °F57.2 °F94 %29.86 in6.2 miCalmPartly Cloudy
11:30 PM59.0 °F57.2 °F94 %29.89 in6.2 miVariable2.3 mphPartly Cloudy
Hourly data recorded from LECO, located miles away from A Coruņa - Downtown, Spain







STORIES FROM OUR PARTNERS